E25RIV-1 Weather Reports


time (UTC)temp
F
wind
direction
speed
knots
gust
knots
rain 1hr
in
rain 24hr
in
rain mn
in
humidity
%
barometer
mb
20260504182324 79 0 0.0 0.0 0.00 0.00 0.00 99 1006.0
20260504181300 79 0 0.0 0.0 0.00 0.00 0.00 99 1006.0
20260504180236 78 0 0.0 0.0 0.00 0.00 0.00 99 1006.0
20260504175212 78 0 0.0 0.0 0.00 0.00 0.00 99 1006.0
20260504174148 78 0 0.0 0.0 0.00 0.00 0.00 99 1006.0
20260504173124 79 0 0.0 0.0 0.00 0.00 0.00 99 1006.0
20260504172100 79 0 0.0 0.0 0.00 0.00 0.00 99 1006.0
20260504171036 78 0 0.0 0.0 0.00 0.00 0.00 99 1007.0
20260504150548 80 0 0.0 0.0 0.00 0.00 0.00 99 1007.0
20260504140324 79 0 0.0 0.0 0.00 0.00 0.00 99 1005.0
20260504110637 78 0 0.0 0.0 0.00 0.00 0.00 99 1003.0
20260504050436 99 0 0.0 0.0 0.00 0.00 0.00 50 994.0
20260504045411 99 0 0.0 0.0 0.00 0.00 0.00 52 995.0
20260504044348 99 0 0.0 0.0 0.00 0.00 0.00 51 994.0
20260504043324 99 0 0.0 0.0 0.00 0.00 0.00 52 995.0
20260504042300 98 0 0.0 0.0 0.00 0.00 0.00 52 995.0
20260504041236 99 0 0.0 0.0 0.00 0.00 0.00 51 995.0
20260504040211 98 0 0.0 0.0 0.00 0.00 0.00 54 997.0
20260504035147 97 0 0.0 0.0 0.00 0.00 0.00 55 997.0
20260504034124 98 0 0.0 0.0 0.00 0.00 0.00 55 997.0
20260504033100 97 0 0.0 0.0 0.00 0.00 0.00 57 998.0
20260504032036 98 0 0.0 0.0 0.00 0.00 0.00 54 997.0
20260504031011 100 0 0.0 0.0 0.00 0.00 0.00 52 995.0
20260504025948 99 0 0.0 0.0 0.00 0.00 0.00 54 996.0
20260504024924 98 0 0.0 0.0 0.00 0.00 0.00 60 999.0
20260504023900 96 0 0.0 0.0 0.00 0.00 0.00 63 1000.0
20260504022836 95 0 0.0 0.0 0.00 0.00 0.00 65 1001.0
20260504021811 95 0 0.0 0.0 0.00 0.00 0.00 67 1002.0
20260504020747 95 0 0.0 0.0 0.00 0.00 0.00 69 1002.0
20260504015723 94 0 0.0 0.0 0.00 0.00 0.00 70 1002.0
20260504014659 94 0 0.0 0.0 0.00 0.00 0.00 71 1003.0
20260504013635 94 0 0.0 0.0 0.00 0.00 0.00 71 1002.0
20260504012611 93 0 0.0 0.0 0.00 0.00 0.00 76 1004.0
20260504011547 93 0 0.0 0.0 0.00 0.00 0.00 74 1003.0
20260504010523 94 0 0.0 0.0 0.00 0.00 0.00 72 1003.0
20260504005459 95 0 0.0 0.0 0.00 0.00 0.00 72 1002.0
20260504004435 94 0 0.0 0.0 0.00 0.00 0.00 78 1003.0
20260504003411 91 0 0.0 0.0 0.00 0.00 0.00 85 1004.0
20260504002347 92 0 0.0 0.0 0.00 0.00 0.00 89 1004.0
20260504001323 89 0 0.0 0.0 0.00 0.00 0.00 97 1004.0
20260504000259 87 0 0.0 0.0 0.00 0.00 0.00 99 1005.0
20260503235235 84 0 0.0 0.0 0.00 0.00 0.00 99 1005.0
20260503234211 83 0 0.0 0.0 0.00 0.00 0.00 99 1005.0
20260503233147 82 0 0.0 0.0 0.00 0.00 0.00 99 1005.0
20260503232123 82 0 0.0 0.0 0.00 0.00 0.00 99 1004.0
20260503231059 82 0 0.0 0.0 0.00 0.00 0.00 99 1004.0
20260503230035 82 0 0.0 0.0 0.00 0.00 0.00 99 1004.0
20260503225011 82 0 0.0 0.0 0.00 0.00 0.00 99 1004.0
20260503223947 82 0 0.0 0.0 0.00 0.00 0.00 99 1004.0
20260503222923 83 0 0.0 0.0 0.00 0.00 0.00 99 1004.0
20260503221859 83 0 0.0 0.0 0.00 0.00 0.00 99 1004.0
20260503220835 83 0 0.0 0.0 0.00 0.00 0.00 99 1004.0
20260503215811 83 0 0.0 0.0 0.00 0.00 0.00 99 1004.0
20260503214747 83 0 0.0 0.0 0.00 0.00 0.00 99 1004.0
20260503213723 83 0 0.0 0.0 0.00 0.00 0.00 99 1004.0
20260503212659 83 0 0.0 0.0 0.00 0.00 0.00 99 1004.0
20260503211635 83 0 0.0 0.0 0.00 0.00 0.00 99 1004.0
20260503210611 83 0 0.0 0.0 0.00 0.00 0.00 99 1004.0
20260503205547 83 0 0.0 0.0 0.00 0.00 0.00 99 1003.0
20260503204523 83 0 0.0 0.0 0.00 0.00 0.00 99 1004.0
20260503203459 83 0 0.0 0.0 0.00 0.00 0.00 99 1004.0
20260503202435 83 0 0.0 0.0 0.00 0.00 0.00 99 1004.0
20260503201412 83 0 0.0 0.0 0.00 0.00 0.00 99 1003.0
20260503200347 83 0 0.0 0.0 0.00 0.00 0.00 99 1004.0
20260503195323 83 0 0.0 0.0 0.00 0.00 0.00 99 1004.0
20260503194259 83 0 0.0 0.0 0.00 0.00 0.00 99 1004.0
20260503193235 83 0 0.0 0.0 0.00 0.00 0.00 99 1004.0
20260503192211 83 0 0.0 0.0 0.00 0.00 0.00 99 1004.0
20260503191147 83 0 0.0 0.0 0.00 0.00 0.00 99 1004.0
20260503190123 83 0 0.0 0.0 0.00 0.00 0.00 99 1004.0
20260503185059 84 0 0.0 0.0 0.00 0.00 0.00 99 1004.0
20260503184035 84 0 0.0 0.0 0.00 0.00 0.00 99 1005.0